Location: El Castaño
(10.3135°N, 67.5574°W)
Time: 01:32:44
(UTC+00:00)

Cosmos 1726 - Pass Details

Date: 13 June 2024
Orbit: 374 x 379 km, 82.5° (Epoch: 14 July)

Event Time Altitude Azimuth Distance (km) Brightness Sun altitude
Rises 23:15:04 0° 358° (N) 2,223 5.8 -6.0°
Reaches altitude 10° 23:17:03 10° 360° (N) 1,373 4.7 -6.4°
Maximum altitude 23:20:00 75° 84° (E) 389 1.4 -7.1°
Drops below altitude 10° 23:22:58 10° 172° (S) 1,373 4.0 -7.7°
Enters shadow 23:25:40 -3° 174° (S) 2,534 5.4 -8.3°
